Location: Appeville
(49.3218°N, 1.3427°W)
Time: 13:43:02
(UTC+00:00)

ATLAS 5 CENTAUR R/B - Pass Details

Date: 08 December 2019
Orbit: 550 x 1109 km, 63.4° (Epoch: 20 January)

Event Time Altitude Azimuth Distance (km) Brightness Sun altitude
Exits shadow 05:01:41 37° 12° (NNE) 1,022 2.6 -25.9°
Drops below altitude 10° 05:05:04 10° 37° (NE) 2,196 4.7 -25.3°
Sets 05:07:40 0° 42° (NE) 3,214 5.7 -24.9°
